GFSMA_250_spd_087.txt.gz
Wind_Speed
53 59 56 54 53 48 45 43 44 40 33 27 24 22 18 12 12 13 16 14 7 5 9 13 20 22 25 27 25 25 28 32 34 37 43 39 33 33 37 34 34 33 33
47 56 56 50 57 47 51 43 34 34 35 29 31 27 23 17 16 19 18 15 13 9 12 15 16 21 26 25 25 28 31 35 38 41 43 44 37 38 38 36 35 37 37
42 50 60 49 51 50 57 44 38 36 40 35 33 29 25 21 16 21 21 24 15 14 14 14 16 18 22 28 23 24 33 34 35 37 39 42 37 38 35 38 36 35 36
42 44 50 58 59 53 59 47 45 40 39 38 33 29 24 22 22 25 26 27 23 22 14 17 18 16 21 26 22 24 24 24 27 29 33 36 38 39 40 31 32 35 39
42 45 47 55 57 56 56 52 48 47 42 43 39 34 30 25 23 27 29 28 30 30 25 18 19 19 21 24 24 27 24 19 18 26 30 32 34 33 36 45 42 42 48
39 42 47 51 54 54 61 52 51 52 51 51 43 40 36 30 27 35 33 37 36 32 24 25 20 24 24 20 22 26 26 27 29 34 37 38 38 43 43 42 44 47 41
40 41 45 52 55 54 55 62 58 55 55 54 53 50 47 38 39 41 41 43 37 34 29 29 27 25 24 23 21 25 29 32 34 33 38 42 43 42 42 44 44 46 47
40 40 41 50 58 56 56 57 58 61 61 59 58 58 58 49 43 43 48 40 36 30 35 37 31 27 28 27 30 30 29 32 38 44 43 43 43 43 46 46 48 51 52
38 39 42 43 54 58 54 61 62 57 56 59 57 57 52 47 40 45 48 43 42 39 36 38 37 33 30 33 34 36 34 35 36 39 45 50 51 50 50 43 47 53 55
30 38 44 43 44 45 46 48 49 61 61 52 57 52 52 46 46 48 50 44 41 41 40 42 40 39 40 37 42 40 41 41 42 44 45 44 47 51 53 55 54 53 51
28 41 44 48 44 43 45 44 46 49 46 41 48 52 55 49 51 51 43 37 39 34 37 41 39 43 44 45 43 45 49 50 48 48 48 48 48 49 50 53 56 55 56
28 36 43 42 42 44 42 43 47 51 53 49 50 54 50 53 52 51 40 42 42 39 40 44 47 49 50 48 51 54 56 55 58 56 54 54 54 54 56 55 57 59 61
32 37 45 43 44 43 44 43 48 52 56 49 50 53 55 52 53 44 46 45 45 47 52 52 54 53 53 56 60 64 64 60 57 57 59 61 61 59 60 66 67 63 64
39 38 40 41 45 43 40 43 47 47 49 45 50 56 57 47 50 49 50 51 57 61 62 63 58 59 59 62 63 66 62 62 60 60 59 59 60 63 65 67 68 67 67
42 36 38 40 37 41 40 39 43 45 44 46 55 54 48 51 54 57 59 63 67 68 65 64 62 65 67 68 72 74 73 70 66 66 68 67 72 74 70 66 66 67 68
41 35 39 40 36 39 42 46 42 46 44 48 53 55 54 57 62 61 62 65 66 65 65 69 71 74 77 78 76 78 76 71 71 73 71 72 68 69 70 69 71 72 75
19 31 40 40 40 41 45 47 53 50 49 55 56 58 61 66 66 66 68 70 70 71 73 76 78 82 86 83 77 75 72 72 70 72 73 73 76 78 79 79 79 78 77
19 23 28 44 43 45 47 49 51 57 58 61 64 65 64 65 65 65 66 68 76 76 82 85 87 81 80 76 70 68 65 62 62 64 66 68 69 68 67 65 62 61 62
21 22 27 26 38 51 52 53 52 58 62 63 68 70 70 71 72 75 83 83 84 76 73 70 68 60 56 54 53 53 55 56 57 58 60 62 63 64 63 62 59 60 60
30 28 25 26 28 30 48 54 57 60 62 69 70 74 76 79 77 62 58 61 55 53 51 49 50 54 54 57 55 56 57 59 60 62 63 65 67 67 62 64 66 65 67
35 35 34 32 34 33 32 34 39 42 46 52 57 62 63 59 59 60 63 59 55 53 53 55 57 58 60 63 66 67 66 68 70 70 71 73 74 75 72 72 75 75 78
40 40 39 39 42 42 41 40 40 41 43 45 47 50 52 53 55 56 57 58 57 59 61 62 64 65 67 70 72 73 73 73 74 74 74 77 76 77 77 77 78 80 80
46 43 45 46 47 49 49 49 50 49 51 53 54 58 61 62 63 64 65 67 66 67 68 70 72 72 72 72 73 76 78 78 78 77 79 80 81 82 83 83 83 82 82
46 43 45 46 46 50 54 56 56 57 58 59 59 59 61 63 66 67 70 71 70 71 75 77 79 78 79 78 80 82 83 82 82 82 83 85 84 86 86 86 88 87 87
50 48 49 52 54 54 55 56 57 57 58 61 62 64 65 66 68 70 72 72 73 73 77 81 83 83 83 85 84 84 83 83 84 88 90 92 94 95 94 96 97 96 98
57 55 57 60 61 62 62 62 63 65 65 67 68 70 70 71 71 71 73 75 78 82 84 86 85 82 84 85 88 89 89 90 92 94 97 99 100 102 103 105 107 107 107

GFSMA_250_spd_093.txt.gz
Wind_Speed
62 54 35 31 38 43 44 44 53 48 42 41 42 35 34 32 26 28 23 17 16 16 14 11 7 8 10 12 16 20 20 16 19 25 22 19 25 28 33 39 41 40 38
56 45 31 32 34 39 38 42 45 45 45 40 39 36 35 31 30 28 21 15 18 13 12 10 8 4 5 6 8 12 16 14 16 19 20 26 27 33 36 36 39 44 46
49 39 30 33 27 30 37 40 39 41 46 46 40 40 37 33 33 30 24 21 20 19 15 13 11 8 9 10 9 10 12 14 18 12 17 11 15 22 32 38 40 42 46
39 33 38 40 35 35 36 38 38 44 46 50 48 41 41 35 33 30 28 27 23 24 19 16 15 13 13 11 11 11 12 14 14 19 16 19 18 16 17 19 24 31 38
35 31 38 43 38 37 39 39 38 43 49 47 49 42 40 38 37 33 33 29 25 24 24 20 21 22 19 18 13 14 13 13 16 19 23 25 24 23 19 20 22 25 28
32 31 37 43 40 38 38 38 38 42 48 47 47 45 39 36 37 39 36 29 26 28 26 26 24 26 28 25 21 17 17 17 15 18 18 19 21 24 30 30 30 32 34
27 32 41 46 41 43 39 40 41 46 51 49 44 42 40 36 42 37 38 31 29 32 30 30 26 29 29 31 26 26 25 25 24 23 23 23 26 28 29 30 31 30 38
28 31 34 42 41 40 42 40 44 46 52 52 48 46 36 40 44 42 40 35 30 30 29 29 30 32 33 35 35 35 32 24 25 25 28 31 30 30 32 35 39 43 43
30 29 29 33 37 39 43 42 45 50 52 55 53 50 43 41 46 45 43 41 39 39 39 36 36 37 39 42 40 38 30 23 28 30 31 34 35 34 37 42 44 46 48
29 28 30 33 35 40 46 48 50 51 52 58 53 53 48 47 48 50 47 48 49 47 47 45 42 42 43 44 47 44 32 30 32 32 38 40 45 41 45 48 49 52 55
33 30 31 34 34 42 46 47 51 52 50 62 62 55 53 51 50 50 50 51 53 52 52 51 49 45 46 48 50 45 45 40 36 36 37 43 48 48 50 53 56 60 64
32 32 34 34 35 36 42 47 48 51 55 59 63 64 59 54 51 53 55 51 55 56 54 54 50 43 40 44 48 53 52 47 42 44 50 53 53 56 56 59 64 69 71
31 31 30 33 33 34 36 40 43 51 57 57 62 63 61 58 53 54 51 54 52 52 54 56 55 48 47 49 51 52 52 55 50 52 55 53 58 61 67 68 70 68 67
30 25 27 31 31 28 33 31 35 45 59 51 56 59 56 58 56 54 55 52 57 54 58 60 54 50 49 53 51 54 51 50 54 59 56 62 67 70 74 73 77 66 61
26 26 26 29 29 27 32 33 31 29 48 55 52 57 53 51 51 53 57 60 57 56 57 54 52 52 53 54 56 55 52 55 60 62 64 72 75 75 79 71 67 60 52
25 23 25 28 28 28 31 34 33 34 32 36 43 51 53 47 50 53 54 55 57 54 53 54 54 57 56 58 60 57 57 63 67 68 74 77 80 79 72 67 55 53 51
25 23 22 27 30 28 29 33 33 30 37 34 39 40 43 43 47 47 57 58 57 56 59 59 57 60 61 63 61 60 63 66 71 76 78 81 82 69 60 56 55 56 55
26 26 22 21 25 27 32 32 30 31 30 37 38 39 40 41 45 53 54 53 53 49 51 57 60 61 62 62 60 62 67 70 74 77 80 81 68 64 59 60 60 60 62
25 24 22 18 27 29 29 35 35 34 34 38 38 41 45 47 49 52 51 51 50 49 49 55 60 60 62 63 65 70 72 77 80 84 77 69 67 64 62 64 65 65 68
28 26 22 17 18 23 36 33 36 38 39 37 40 46 48 48 51 50 52 56 56 57 59 60 61 62 65 68 72 76 82 80 72 63 63 64 66 66 68 69 72 75 77
32 31 28 22 20 19 22 31 41 41 41 42 43 45 47 48 51 54 54 54 58 65 66 69 68 69 70 73 76 70 63 64 66 67 69 70 70 71 72 75 77 80 79
36 34 31 28 27 26 24 24 24 30 38 43 49 52 51 54 55 57 59 60 62 64 64 66 73 75 71 67 65 64 68 71 71 73 75 74 74 75 77 80 80 82 82
41 38 35 33 34 34 31 30 32 33 33 35 37 38 39 45 55 61 63 66 68 68 65 63 60 60 62 66 68 71 72 74 74 74 75 77 79 79 80 80 82 84 88
42 42 40 41 41 40 39 38 37 37 38 41 44 45 47 48 50 51 52 54 56 58 60 61 63 66 69 70 72 73 73 76 77 79 82 82 83 85 86 89 89 91 94
45 44 42 43 44 44 44 45 46 47 47 47 47 51 54 56 58 60 61 62 64 65 67 69 70 71 71 71 74 76 79 83 83 84 83 85 87 89 92 95 96 97 101
52 52 51 50 49 48 48 49 50 51 53 53 53 53 56 60 61 63 65 67 67 68 69 71 72 73 74 75 77 78 79 81 83 85 86 89 93 95 96 101 104 106 109

GFSMA_250_spd_099.txt.gz
Wind_Speed
55 49 46 45 47 51 56 60 59 46 39 34 30 35 36 41 40 33 31 25 22 23 20 20 23 21 20 17 16 16 14 15 18 20 21 21 15 17 18 21 21 21 26
48 47 42 42 48 54 58 59 42 35 34 29 32 32 37 38 38 35 32 28 25 24 20 22 14 13 15 17 13 10 12 12 13 15 15 13 13 13 13 14 21 24 27
42 45 41 45 49 55 60 49 35 30 32 27 31 32 39 38 37 37 33 27 22 23 21 23 18 19 13 9 12 11 11 11 9 10 13 16 17 19 19 19 17 16 17
45 41 42 46 50 58 58 42 34 39 30 26 32 36 35 40 38 39 36 29 21 20 22 25 22 19 15 16 12 8 11 11 11 10 10 7 9 11 10 11 11 14 19
37 40 44 49 51 56 55 34 37 42 34 33 36 40 42 43 40 41 39 33 26 24 23 25 27 25 21 21 19 15 15 15 16 18 14 14 13 11 9 11 13 12 13
35 41 49 51 55 56 43 30 42 45 38 36 45 46 48 46 42 43 38 32 32 29 27 29 32 32 28 23 21 19 16 16 18 19 18 20 19 14 14 11 13 17 19
38 43 48 52 56 57 35 32 47 47 38 35 48 46 48 51 47 45 40 35 38 33 31 32 36 33 34 29 25 20 20 20 23 23 26 24 23 19 17 14 13 16 22
38 41 48 49 54 50 31 35 45 43 34 39 48 48 51 54 50 46 42 38 37 36 35 36 36 35 35 36 31 29 26 24 26 29 28 27 28 28 24 24 21 24 20
41 41 46 48 50 39 28 37 38 38 34 37 46 49 52 60 54 48 47 43 41 38 38 40 39 36 35 37 39 36 32 33 31 33 33 31 32 35 35 34 39 39 33
43 44 46 49 50 32 28 36 41 42 40 38 39 43 51 60 54 52 51 47 44 41 39 40 39 39 38 40 39 38 37 38 34 34 31 30 38 44 45 48 45 46 44
44 43 48 46 42 31 29 35 41 42 46 44 44 46 48 61 59 55 54 52 48 46 44 42 42 41 39 42 42 39 37 33 35 35 35 37 33 35 39 45 46 49 46
44 49 50 46 42 34 35 35 38 41 44 49 44 46 51 61 63 56 57 54 52 53 48 45 45 43 42 44 47 45 42 44 45 41 42 42 43 47 47 45 43 45 48
45 46 44 48 35 36 40 39 36 42 46 51 47 48 50 54 59 61 57 55 58 55 53 49 50 48 49 48 50 49 50 52 47 48 46 47 53 50 43 42 41 46 51
38 44 46 42 39 37 42 43 40 39 41 47 50 49 52 54 51 57 58 59 59 57 55 56 52 51 53 53 54 56 56 52 53 50 53 56 49 44 43 44 46 49 54
42 41 41 44 39 38 41 43 39 41 43 42 45 51 55 56 57 57 59 60 61 57 53 52 53 56 54 53 55 56 56 57 53 54 58 53 49 47 48 50 52 54 56
34 37 42 42 41 39 40 40 38 38 36 37 41 45 51 57 60 61 59 59 61 61 58 57 58 57 58 56 55 58 56 55 57 58 57 56 52 49 52 52 53 57 59
45 38 41 43 42 37 37 37 37 34 32 35 36 37 46 58 60 62 62 57 58 62 66 60 57 58 62 61 60 60 60 60 64 62 56 55 52 54 54 55 56 59 62
50 45 41 42 41 34 34 36 33 28 32 30 28 27 32 42 58 57 54 55 63 62 61 67 66 67 67 65 65 65 65 65 61 57 57 52 54 56 58 57 61 61 63
50 41 41 40 38 34 34 34 30 29 29 32 30 26 30 36 37 48 47 50 47 50 54 62 61 63 66 63 65 67 66 65 59 58 59 59 60 60 61 63 65 67 65
51 41 39 41 35 35 34 31 28 28 29 31 33 32 25 30 35 35 40 48 48 47 53 56 58 54 54 56 57 60 61 59 62 63 64 64 62 62 64 64 63 65 68
56 46 35 43 37 34 35 31 29 29 30 33 34 37 37 37 38 45 47 52 54 56 61 62 57 54 55 58 59 61 62 61 63 64 64 64 64 63 63 64 70 70 67
57 51 39 47 41 38 35 34 34 32 33 36 41 42 43 45 44 44 48 53 56 59 60 59 58 57 57 59 61 63 64 65 66 68 64 62 66 65 66 67 69 67 70
60 52 46 52 45 42 39 35 34 33 35 40 43 44 45 47 48 52 54 55 57 58 59 61 60 61 63 64 66 69 71 70 68 67 66 67 71 69 71 69 70 72 72
49 51 55 55 50 47 44 40 38 36 34 36 43 50 50 51 53 54 56 55 56 59 61 63 65 66 68 69 70 70 69 68 68 69 70 70 71 71 73 73 73 75 74
47 51 57 55 53 53 49 47 44 43 41 40 39 41 46 52 56 58 59 62 66 67 68 69 70 70 69 69 69 71 69 69 70 71 73 75 75 73 73 75 77 80 82
52 56 51 56 58 57 55 54 52 50 48 46 46 46 46 48 50 51 52 53 56 58 61 63 64 66 68 69 70 71 72 74 75 74 73 76 78 80 80 81 82 84 85

GFSMA_250_spd_105.txt.gz
Wind_Speed
48 45 47 47 45 43 40 43 44 44 43 41 43 47 48 48 37 27 29 32 34 33 34 31 26 31 31 28 27 24 19 17 15 14 12 13 13 10 7 7 8 7 4
47 46 48 46 42 38 37 38 42 38 38 41 43 46 50 44 31 26 35 39 39 36 37 33 37 40 32 33 26 20 14 13 12 10 10 8 8 5 2 2 3 2 2
49 47 51 48 41 39 37 37 36 35 37 41 43 49 49 37 29 37 42 46 46 41 43 26 35 39 32 31 26 23 18 15 13 12 7 5 2 1 2 3 5 4 3
53 49 49 52 52 44 38 33 36 38 37 41 45 48 47 28 30 44 41 46 48 46 46 42 39 33 31 24 25 22 21 19 16 14 10 8 6 5 6 6 6 4 3
53 46 43 46 47 43 40 32 36 35 37 40 45 47 32 24 28 42 43 43 46 48 46 38 37 43 34 32 28 25 24 20 18 15 17 13 11 9 7 8 8 8 7
55 52 43 43 42 40 41 34 36 39 41 39 45 42 24 27 32 39 50 43 40 50 48 47 47 45 42 36 31 31 29 26 22 20 18 15 10 13 11 12 10 12 13
54 54 48 43 43 39 38 33 34 38 38 40 42 32 24 35 38 40 46 34 40 50 52 47 47 49 43 39 34 34 35 31 25 23 21 22 23 18 15 16 17 17 21
55 53 51 47 47 42 39 33 34 39 39 41 40 24 28 36 46 52 49 44 47 51 54 50 49 48 41 39 32 35 36 37 33 28 26 23 21 22 26 20 22 23 24
58 54 52 46 47 46 46 45 35 41 42 40 34 20 32 38 43 55 59 47 48 51 54 52 46 47 42 38 36 32 34 36 36 37 37 33 31 29 24 25 27 25 25
59 53 50 48 47 47 45 47 43 42 36 34 31 22 31 42 44 51 62 50 43 47 52 54 47 43 41 40 37 33 33 32 36 37 41 39 33 26 26 31 31 28 29
61 59 48 45 44 49 43 43 42 35 32 31 30 24 31 40 46 50 62 59 53 53 53 57 56 51 43 38 37 37 31 32 35 32 25 21 26 27 28 27 29 29 26
60 60 54 45 44 47 46 48 37 33 37 34 30 33 35 37 39 57 55 58 57 58 56 57 57 55 47 42 39 37 32 32 32 34 35 31 32 31 35 34 35 33 34
56 59 51 51 49 46 39 38 30 38 36 35 28 36 40 37 35 46 57 64 58 60 54 58 59 57 52 49 45 43 40 39 31 39 40 39 35 35 37 40 40 40 39
56 49 51 51 47 42 38 32 33 39 37 38 32 36 41 44 42 43 51 57 62 57 55 57 62 60 59 58 54 49 46 48 46 47 42 41 47 45 43 46 47 46 45
49 45 44 47 47 50 44 33 39 40 38 34 35 36 44 45 47 47 52 54 60 58 58 56 59 62 63 64 63 60 51 51 53 51 52 51 45 46 50 51 52 53 50
42 44 46 42 39 35 33 34 38 38 34 33 34 36 47 48 49 48 49 55 55 56 59 59 57 61 63 67 66 63 62 59 57 55 54 53 50 50 52 56 54 52 56
38 38 42 43 39 38 39 43 41 36 37 39 37 41 44 52 52 51 52 57 57 57 57 55 57 64 66 66 67 66 64 63 63 60 58 53 55 52 54 55 57 58 59
37 37 40 36 36 30 42 44 46 40 41 42 44 42 43 48 50 51 52 55 56 57 52 56 57 56 67 69 68 67 62 61 61 61 62 62 60 60 61 59 59 62 64
40 44 42 44 43 38 37 44 47 41 40 40 48 39 40 42 44 47 50 51 56 54 55 57 56 55 55 60 67 70 67 65 64 65 64 67 65 62 65 66 68 64 62
49 49 47 42 41 40 48 47 47 44 40 46 39 36 37 37 40 43 42 43 46 52 55 55 58 59 58 56 58 62 63 61 59 60 63 63 66 69 69 64 61 66 67
47 52 49 46 49 42 48 50 49 44 40 41 35 35 36 35 39 35 38 41 45 51 58 60 56 61 63 64 62 62 61 62 67 68 67 70 69 64 66 68 66 67 66
43 48 42 40 47 43 50 49 50 48 45 45 35 39 38 37 38 36 42 43 40 39 43 48 53 60 63 67 66 70 75 76 68 67 69 66 69 68 66 65 66 68 71
43 35 37 50 48 48 51 52 54 53 50 53 45 41 43 41 40 38 43 43 38 35 33 35 42 48 56 57 60 66 66 68 73 75 74 72 68 69 69 69 70 72 75
37 33 47 46 44 50 55 59 57 55 54 53 49 44 48 46 46 41 43 43 40 41 42 40 48 51 58 60 62 66 71 71 71 73 72 72 76 73 73 73 74 75 74
49 52 55 57 60 61 60 61 58 57 55 52 49 48 48 51 52 48 46 48 45 46 49 51 51 56 59 62 69 69 73 76 79 76 78 78 76 76 75 75 76 77 77
46 55 60 63 66 69 66 64 62 62 62 63 64 60 58 61 58 52 49 51 54 54 54 56 56 59 62 66 69 72 77 81 78 76 75 76 78 79 80 80 80 81 83

GFSMA_250_spd_108.txt.gz
Wind_Speed
53 47 47 40 40 40 39 37 36 37 38 40 41 43 38 39 41 45 42 41 25 35 33 20 21 38 35 32 31 27 28 33 32 22 16 13 12 13 12 10 11 7 7
54 52 45 41 39 37 39 34 35 35 35 35 35 36 35 38 44 43 44 30 33 43 39 28 25 33 34 32 31 32 34 37 28 19 13 12 12 11 9 9 7 7 7
53 54 47 41 40 40 38 38 35 36 37 35 33 36 37 42 44 43 38 26 45 45 44 38 32 41 39 38 37 37 38 37 29 19 15 13 9 9 11 8 8 8 9
56 53 47 42 40 40 38 38 41 43 40 35 34 38 41 41 42 42 32 35 48 52 42 55 53 36 41 39 39 42 39 34 30 23 17 15 12 12 11 8 8 8 9
59 54 49 43 42 40 35 37 37 38 37 35 37 38 41 42 41 43 32 48 47 51 53 56 39 39 37 41 43 37 38 28 31 26 22 22 17 16 14 12 10 12 13
61 56 53 44 44 43 43 37 37 36 36 41 40 40 39 37 39 32 38 54 57 54 59 51 50 37 36 49 50 41 41 35 33 31 27 26 24 22 20 18 13 11 13
67 61 54 49 44 44 45 38 37 36 38 40 39 39 41 38 39 29 36 56 60 60 62 55 51 39 43 50 42 44 50 42 40 35 32 28 27 24 20 19 17 17 18
70 63 56 55 48 46 47 47 39 38 37 38 41 42 45 36 35 31 38 55 55 64 60 55 50 41 50 60 55 50 54 48 45 42 36 31 31 33 31 29 27 22 21
72 66 61 59 52 48 45 47 44 40 39 40 41 47 45 33 31 36 39 60 52 60 60 61 63 60 49 50 57 58 55 48 45 43 40 38 34 34 31 28 27 26 27
74 68 64 61 57 51 45 44 43 40 40 43 45 47 39 29 31 41 45 47 61 58 60 65 69 66 60 52 52 56 52 49 42 41 38 42 44 41 40 40 34 29 28
68 66 61 62 62 53 47 45 45 41 41 43 41 41 34 31 31 40 45 56 51 62 50 54 70 69 65 56 50 50 50 45 39 36 37 38 37 36 32 30 27 29 29
63 60 59 60 64 56 48 47 44 39 39 41 40 35 34 34 27 42 43 44 60 64 61 53 55 71 65 61 56 52 50 37 37 33 35 35 34 30 26 28 27 31 32
59 62 58 58 62 52 49 44 38 36 39 41 39 35 34 33 29 35 47 46 53 63 69 71 52 57 67 67 58 56 50 36 36 33 35 36 37 38 36 36 39 34 36
57 61 55 55 55 57 46 43 40 38 38 36 37 35 35 38 33 35 44 47 51 57 64 75 64 61 67 69 63 63 56 50 47 44 41 39 45 45 46 41 43 42 43
58 55 52 53 52 53 51 46 41 39 38 37 39 39 37 40 33 39 43 46 40 55 59 69 75 63 62 67 69 65 66 60 55 48 50 50 48 52 54 50 49 50 52
53 51 51 46 51 51 47 39 41 42 39 38 43 42 38 34 33 30 47 50 48 48 60 67 69 66 66 67 64 64 66 66 63 59 53 54 53 54 56 57 58 56 52
44 47 49 44 51 55 49 40 42 46 43 44 45 41 39 40 36 35 41 54 55 53 55 59 60 59 68 71 66 64 64 67 68 66 67 63 60 58 57 61 61 57 57
36 43 47 47 48 52 49 44 43 39 37 40 43 43 44 44 42 45 43 54 58 58 57 60 60 61 64 64 63 62 65 67 69 69 67 67 66 65 63 62 62 66 62
31 36 47 53 50 49 48 45 46 43 47 46 49 50 48 43 45 49 43 50 59 61 59 59 61 58 58 63 63 66 66 65 66 66 67 68 68 63 62 64 63 66 66
33 36 44 45 48 49 47 45 47 44 46 45 55 47 44 41 44 38 39 46 54 57 56 55 57 59 59 61 61 60 62 68 68 71 72 69 70 71 69 67 66 66 65
37 41 44 43 43 45 46 47 49 50 52 53 54 47 43 41 38 33 37 42 43 48 51 51 54 56 56 55 59 60 59 62 68 69 66 67 69 69 66 66 66 68 68
45 48 52 50 47 48 50 52 56 57 58 55 54 45 41 47 36 30 35 38 40 40 46 47 47 47 48 56 55 59 61 62 62 63 66 68 72 73 71 74 73 72 73
42 44 45 46 47 48 51 53 54 58 60 60 55 51 47 42 40 37 37 40 39 40 44 44 43 43 46 50 61 57 58 60 64 70 76 76 78 80 79 77 76 82 78
40 43 45 49 51 51 55 52 53 52 57 53 54 55 50 46 43 36 35 40 41 41 43 48 48 46 45 41 47 54 62 64 67 70 74 78 78 79 79 81 82 81 81
40 42 44 46 46 48 47 50 46 52 58 56 55 53 51 47 47 41 38 40 46 48 45 49 52 53 41 44 49 44 50 66 65 68 71 76 78 79 80 79 79 80 81
44 42 46 49 50 49 50 55 56 59 60 61 62 62 59 54 50 47 50 52 50 54 54 54 54 55 52 52 52 56 60 66 70 70 70 73 77 81 82 83 85 88 90

GFSMA_250_spd_114.txt.gz
Wind_Speed
50 47 47 47 48 48 49 48 45 43 42 39 41 39 34 33 29 29 33 34 38 30 29 29 31 27 26 25 20 28 32 31 30 28 28 27 25 28 28 21 20 16 13
55 55 52 49 50 51 50 49 48 47 47 40 39 38 37 31 31 32 30 32 31 29 30 29 31 34 35 28 34 46 35 37 29 32 29 28 29 28 30 24 21 18 15
60 61 58 55 53 50 51 51 50 52 50 44 37 38 37 35 31 28 29 32 31 32 33 31 27 40 43 39 35 37 46 40 31 33 24 27 32 30 29 23 21 19 14
66 65 62 60 58 55 52 54 52 53 52 48 37 37 40 37 34 30 31 31 33 34 32 31 27 39 47 42 48 47 53 42 39 36 30 34 31 32 30 24 23 18 16
70 69 70 67 61 60 56 55 57 54 52 53 41 38 36 38 36 33 33 27 28 30 32 35 30 35 51 47 41 42 47 49 43 37 34 32 33 32 32 27 25 22 21
71 72 69 70 67 63 64 59 61 56 57 56 46 40 36 36 33 34 36 30 30 27 33 36 38 40 60 42 44 43 45 44 37 35 34 28 29 29 30 30 29 26 23
75 74 74 70 73 71 69 64 60 61 62 60 46 45 40 38 34 35 35 33 32 28 34 42 38 45 59 45 47 48 46 42 39 35 35 33 35 33 33 28 34 30 27
74 76 78 76 75 76 71 66 62 68 67 62 46 45 44 40 33 34 37 35 32 35 38 39 39 53 61 49 53 49 47 38 49 41 42 37 39 40 41 40 33 38 37
77 74 81 80 76 74 74 72 70 71 72 60 47 46 48 45 38 33 37 36 37 38 39 39 39 61 59 54 54 47 40 38 42 42 42 42 39 40 39 41 41 35 41
82 77 79 85 82 81 78 77 75 72 69 61 47 49 53 47 43 37 41 40 41 41 41 37 40 56 62 50 51 47 46 47 55 47 44 40 43 44 49 50 47 41 38
86 84 83 84 88 89 83 79 77 74 71 66 49 51 54 51 48 43 41 40 42 42 38 36 45 52 62 52 48 48 45 42 46 48 48 40 39 49 47 46 46 43 38
86 84 82 84 89 90 85 83 78 74 69 64 49 50 55 54 52 46 40 42 44 41 39 36 46 54 62 63 54 49 45 46 49 47 48 45 45 38 38 39 42 38 34
87 85 82 81 87 90 87 82 77 71 68 63 54 51 54 54 55 45 42 40 41 38 40 38 41 60 67 67 67 62 48 50 52 47 51 48 42 42 37 37 42 41 39
87 84 84 76 67 92 90 80 71 69 63 59 44 47 52 50 50 45 44 43 40 37 40 36 40 60 70 71 67 68 64 56 56 58 62 59 55 49 46 43 41 43 43
82 80 78 75 77 88 83 77 73 68 63 49 39 50 46 39 38 44 47 46 40 39 40 40 37 53 73 73 72 75 72 66 67 62 57 61 60 57 55 45 44 44 44
70 63 62 63 68 70 70 68 68 60 61 48 47 51 45 35 22 48 56 48 45 45 41 33 31 55 63 69 75 76 79 81 73 74 75 73 71 69 66 52 50 51 50
40 36 36 38 39 39 44 48 54 53 54 48 56 56 44 44 52 69 58 48 46 44 38 37 36 36 61 70 69 73 73 72 72 72 73 73 73 68 69 70 65 57 56
28 28 25 21 25 27 33 41 43 47 46 51 66 62 61 46 57 65 57 48 44 46 43 42 42 38 37 61 77 74 80 83 81 79 76 70 70 70 70 72 66 69 67
35 35 29 20 18 21 34 43 39 45 53 56 73 65 61 57 57 60 52 50 53 53 45 44 47 48 50 48 53 66 78 81 82 82 82 81 81 80 77 70 75 73 71
33 26 29 20 19 25 31 38 41 43 52 56 73 66 62 61 60 57 51 52 56 52 48 46 48 50 53 57 60 59 64 74 72 72 76 80 83 85 81 79 81 79 77
24 22 27 27 31 34 37 38 42 46 53 50 66 67 66 65 62 62 50 51 55 49 46 46 51 53 50 47 44 51 59 67 71 69 67 69 72 72 78 73 70 75 77
37 32 32 34 34 37 43 41 42 43 45 53 66 66 64 65 63 60 49 51 50 49 52 53 46 46 48 40 31 36 45 55 65 70 71 68 68 70 69 69 66 67 69
33 34 36 36 36 35 33 33 38 42 46 57 67 64 63 63 60 57 53 54 52 53 50 51 52 47 47 43 39 39 41 42 43 48 59 68 72 72 72 72 72 69 68
33 32 29 31 37 36 36 40 42 44 46 58 65 62 64 60 57 59 59 53 54 58 56 55 57 58 49 44 44 41 38 34 32 37 41 46 55 62 65 68 71 72 72
35 33 30 27 33 37 42 44 45 47 49 50 60 61 62 61 60 61 58 59 58 59 58 59 60 61 54 49 46 39 36 37 39 39 36 39 44 50 56 60 64 67 69
37 37 33 34 33 38 43 42 42 45 43 53 56 59 57 55 54 59 61 60 63 66 66 65 63 64 59 60 52 44 42 42 37 42 43 47 48 52 54 55 59 64 68

GFSMA_250_spd_117.txt.gz
Wind_Speed
51 50 49 48 47 45 45 46 46 44 42 40 39 38 34 36 32 35 33 33 34 36 35 38 36 35 29 23 27 29 26 27 34 33 30 29 27 28 26 24 27 21 22
55 54 52 52 50 50 49 46 49 49 49 46 43 38 36 35 35 34 36 34 39 39 40 42 39 36 33 26 32 35 41 46 38 38 34 34 29 26 26 24 25 22 21
62 58 56 56 56 53 52 49 50 54 54 52 48 45 37 38 36 35 38 40 39 39 38 40 39 39 33 30 40 39 30 29 39 40 40 33 34 24 25 29 27 24 22
69 65 62 62 60 57 52 50 51 54 54 53 52 49 41 38 36 37 41 41 39 40 42 41 40 37 35 31 45 46 42 43 45 42 39 35 35 33 28 31 32 27 24
73 71 67 66 62 57 55 55 55 59 59 56 56 54 49 40 38 42 43 43 41 41 40 39 36 37 38 30 48 52 48 50 45 43 43 36 36 40 32 32 28 30 26
75 72 74 70 65 60 59 61 61 62 60 60 58 58 55 43 44 43 46 46 45 40 37 32 34 37 38 37 30 59 56 56 50 51 47 41 36 41 32 28 23 20 23
68 71 71 69 64 60 68 63 62 64 63 61 60 53 56 53 47 43 45 45 46 42 39 34 31 34 36 39 42 54 63 61 59 49 48 43 43 42 37 33 28 29 32
74 71 69 62 62 58 54 64 60 62 66 66 65 59 59 60 52 42 50 47 46 48 40 36 36 35 43 44 51 49 63 58 54 51 53 50 43 43 40 35 33 36 36
74 76 74 70 67 62 45 64 61 68 65 66 67 67 64 63 55 46 52 50 44 46 43 39 33 38 38 42 51 49 61 55 48 45 48 51 48 48 40 36 37 41 34
77 77 72 70 70 66 64 55 57 78 75 76 72 72 71 67 62 49 51 53 44 44 42 40 35 39 38 39 41 52 63 55 51 36 38 46 51 44 39 39 41 41 42
79 78 75 74 72 72 67 68 73 77 80 76 72 73 71 68 66 53 51 56 47 47 43 40 37 36 38 36 34 54 56 56 55 41 41 38 40 41 42 39 39 37 45
81 80 82 79 76 72 71 73 75 79 81 77 77 69 72 69 65 57 52 59 52 48 44 44 41 36 38 35 32 50 50 55 54 52 51 53 53 48 45 48 42 39 40
85 85 84 84 81 77 77 74 72 75 75 77 76 74 71 64 62 51 51 59 56 48 44 46 43 41 36 36 31 57 49 50 49 49 50 52 52 47 48 47 46 42 39
88 89 87 85 84 81 79 79 71 72 78 76 72 70 60 55 54 48 51 59 57 49 43 43 42 42 35 34 34 58 61 54 54 54 52 51 54 52 54 58 50 45 41
86 88 88 85 81 78 79 77 72 69 76 75 68 69 58 56 51 45 49 56 54 53 46 45 44 42 37 36 36 46 67 61 59 58 60 60 55 50 56 53 54 56 49
82 83 82 81 78 76 78 81 77 74 76 72 66 67 66 54 41 45 49 53 51 52 48 44 45 46 42 36 36 45 57 69 69 65 61 66 68 60 55 59 59 56 52
74 74 77 79 77 72 71 76 71 73 78 66 66 69 65 53 46 50 51 50 41 35 47 46 48 49 43 34 34 40 51 58 72 69 67 67 68 68 68 67 67 66 70
69 69 63 57 54 48 48 51 50 62 73 58 75 79 65 56 48 54 56 50 43 44 48 44 48 50 47 37 32 33 42 59 63 69 76 74 75 71 74 75 76 75 73
51 44 40 40 40 36 29 31 32 35 39 44 53 59 63 53 46 58 57 50 47 43 54 51 50 47 49 42 39 40 40 41 56 69 74 76 76 80 80 75 71 73 64
35 34 33 32 33 35 33 33 29 30 29 32 41 49 49 50 49 62 64 55 60 55 56 55 52 52 49 47 43 45 43 45 48 53 67 79 82 80 83 80 81 81 82
42 38 36 36 37 34 39 39 34 22 24 32 42 49 55 59 54 62 70 71 57 55 57 64 62 61 56 49 47 47 47 50 50 53 62 71 72 81 88 90 86 85 83
44 41 39 36 31 34 31 26 24 21 24 31 38 50 59 67 65 70 65 74 65 61 64 69 71 61 56 54 51 48 46 45 44 49 50 62 70 71 74 77 79 75 71
42 39 35 37 38 33 43 30 22 38 37 36 42 45 55 65 72 74 73 74 69 66 66 63 61 62 59 54 50 47 43 43 47 45 43 39 52 64 67 73 76 76 73
40 40 39 38 37 36 38 46 50 58 42 41 44 48 55 65 73 75 73 73 70 66 66 62 59 58 61 59 52 54 51 53 47 44 45 44 42 46 50 55 63 71 74
38 39 38 40 39 37 37 45 45 48 49 45 45 49 53 57 70 81 75 67 68 65 64 66 66 64 67 58 56 57 55 52 54 51 47 45 39 38 37 39 43 46 51
36 36 38 39 39 37 39 41 41 38 46 47 46 46 49 51 58 69 69 68 69 67 68 68 67 66 67 63 59 59 58 57 58 57 52 50 50 43 41 45 45 45 46

GFSMA_250_spd_123.txt.gz
Wind_Speed
52 47 45 41 38 40 45 40 39 51 51 48 51 47 46 44 42 38 32 35 39 37 37 35 39 41 40 39 38 36 39 36 37 36 30 32 34 29 26 24 21 21 25
44 45 42 45 45 48 43 38 43 48 51 53 53 51 47 44 42 41 39 36 38 38 38 34 36 37 35 36 39 38 42 35 40 41 37 34 35 31 30 30 24 24 27
39 43 46 47 46 45 43 40 38 43 42 43 45 49 45 39 37 35 37 39 37 36 34 33 33 43 42 36 36 38 44 35 42 42 35 36 36 41 33 30 30 27 23
54 48 41 38 36 37 38 44 44 40 41 44 51 52 42 38 32 35 38 39 38 36 31 34 34 38 47 41 39 41 40 40 39 45 41 42 39 46 39 33 36 31 32
56 54 41 46 41 30 34 40 46 43 40 46 49 48 36 36 38 42 44 46 42 38 33 31 37 36 43 42 43 43 43 41 43 45 47 45 43 41 39 34 34 35 34
59 48 47 42 35 34 39 40 53 54 47 39 38 43 42 42 45 50 49 52 50 46 38 39 42 42 38 48 45 45 42 44 43 48 48 50 48 49 41 40 36 37 31
74 55 46 49 45 47 43 44 51 52 59 50 39 39 36 38 45 50 53 54 57 47 51 51 51 44 37 39 51 45 45 45 44 48 52 51 51 55 49 45 45 40 45
77 75 63 57 44 39 47 47 61 64 54 46 48 46 46 40 42 49 60 57 57 54 62 61 53 47 45 40 45 51 47 45 51 52 52 53 50 48 57 53 48 45 46
80 81 87 84 72 61 52 64 65 56 48 48 46 45 45 51 58 49 53 59 58 61 64 66 57 53 51 47 41 48 50 45 49 53 55 56 56 55 53 61 55 46 50
76 84 90 92 86 81 79 74 71 69 64 55 56 45 51 55 55 53 63 67 63 67 70 67 57 55 53 49 46 45 47 48 50 53 58 58 57 57 64 55 60 52 54
81 83 90 93 93 90 92 84 79 71 73 55 56 51 67 59 62 59 51 53 68 66 71 69 57 56 56 54 52 50 49 51 53 51 55 57 60 60 41 53 53 59 59
88 87 88 97 98 101 103 98 89 74 75 72 75 71 74 72 72 63 70 66 65 69 70 74 66 60 60 60 62 53 52 52 51 53 55 56 54 58 49 52 53 49 51
93 92 92 96 99 107 107 107 104 95 92 92 87 87 89 84 76 80 75 79 82 86 86 82 78 74 65 63 64 55 52 55 51 51 50 56 50 47 49 54 52 47 43
93 91 95 100 98 102 111 114 112 113 112 110 105 101 100 94 92 94 85 88 89 88 87 86 85 75 69 62 63 58 52 54 52 51 42 42 40 43 44 46 54 53 42
90 89 92 97 101 103 105 112 115 117 116 114 112 109 108 105 105 105 104 103 100 99 96 91 82 76 71 63 59 55 54 54 52 48 44 39 39 49 54 54 52 50 53
83 88 89 90 92 100 103 105 109 112 114 113 112 113 113 110 105 104 105 103 101 103 98 91 85 81 78 66 59 55 55 55 50 50 44 39 39 62 56 59 58 58 56
78 80 83 85 86 89 94 98 99 100 102 104 103 104 103 104 101 100 100 100 99 98 97 89 85 85 80 63 59 54 56 56 52 49 46 45 39 64 64 59 60 55 60
75 79 82 82 83 85 88 90 92 91 88 91 93 93 96 98 96 96 99 97 96 95 91 85 86 80 68 64 56 57 57 58 56 49 47 46 41 57 67 63 54 59 66
70 73 77 79 79 78 77 76 78 79 80 82 85 87 92 96 97 94 91 92 93 95 91 87 85 78 66 63 59 58 57 59 56 52 48 47 47 47 65 59 68 61 61
63 70 73 73 73 72 71 72 72 71 71 75 80 82 84 89 90 91 88 90 91 89 87 85 82 77 65 60 58 59 55 61 56 57 53 48 46 44 56 68 65 64 64
54 55 57 58 58 58 58 60 62 64 66 70 70 73 77 80 84 89 91 90 88 86 80 79 74 73 68 60 62 61 56 62 61 61 57 53 50 47 42 52 69 68 69
43 45 47 48 48 49 51 54 56 57 60 61 56 56 52 54 59 64 67 75 83 86 82 76 74 70 65 59 59 57 61 63 61 60 62 60 54 54 48 46 46 49 53
37 40 41 43 45 46 46 45 42 40 36 34 35 37 41 42 41 46 51 49 53 59 63 64 70 67 63 50 62 61 64 69 66 64 65 63 59 53 51 53 51 50 57
26 27 28 29 30 30 31 30 34 32 29 28 31 35 34 30 34 34 30 29 32 38 48 54 60 64 61 64 66 65 55 71 66 62 65 61 59 55 53 55 56 57 60
24 24 26 29 30 30 33 33 35 35 34 31 32 35 39 39 37 40 37 34 33 42 49 58 61 63 63 65 68 71 75 74 71 64 58 67 68 61 60 62 62 61 60
26 26 24 33 31 35 40 33 37 38 38 39 38 40 44 49 45 37 30 25 32 56 54 57 57 62 70 73 73 70 69 73 76 73 60 59 62 64 63 67 67 64 63

GFSMA_250_spd_126.txt.gz
Wind_Speed
41 50 50 47 48 50 49 44 39 40 33 27 27 24 26 30 34 37 31 19 18 21 24 26 28 26 26 25 34 38 35 34 33 34 34 37 41 41 38 30 24 23 18
38 44 42 46 45 46 45 43 41 42 39 32 29 24 28 33 32 30 25 17 17 24 24 26 24 24 26 23 29 32 35 36 34 35 39 39 41 38 35 33 32 23 22
39 43 29 38 44 43 49 49 48 46 41 34 24 29 26 25 33 27 20 19 24 25 30 29 27 21 25 28 24 34 29 28 32 39 38 39 43 42 43 39 31 30 22
50 50 56 43 53 59 50 54 45 40 37 32 37 31 32 19 22 30 31 25 27 28 30 36 31 26 29 34 30 28 35 30 30 34 37 39 43 48 47 39 33 33 32
54 60 49 44 53 49 60 52 43 38 43 38 39 29 38 28 21 28 35 29 27 29 26 39 33 32 37 35 29 25 30 37 32 34 38 41 40 47 44 41 37 38 39
70 62 59 65 63 69 64 52 50 40 33 37 38 29 42 41 29 32 37 38 37 34 30 38 37 34 39 34 30 28 26 33 39 35 37 36 42 43 48 45 40 43 34
76 78 74 75 70 72 63 59 54 57 44 44 41 37 38 39 41 41 36 38 34 36 40 41 43 42 45 40 36 31 26 25 38 42 39 40 43 42 40 44 41 45 48
80 82 80 85 83 75 68 58 50 53 58 53 46 41 37 40 39 40 40 37 37 35 41 45 47 47 51 54 49 39 26 26 27 41 45 44 43 47 47 38 43 43 44
91 88 83 86 82 89 77 67 58 55 56 57 48 53 51 45 48 43 43 49 47 39 47 44 46 51 55 55 57 50 32 25 32 31 41 47 46 48 51 51 46 48 51
95 95 92 92 87 86 90 81 72 67 60 58 54 49 47 49 53 45 47 47 55 55 50 49 48 47 51 59 58 50 49 41 36 39 41 49 51 49 52 57 54 51 45
97 100 99 95 92 94 90 92 85 72 69 67 59 65 54 49 52 46 48 53 56 53 55 54 52 49 58 64 54 56 60 61 54 46 47 46 54 52 53 55 57 59 54
97 98 98 97 95 92 99 92 94 86 84 78 76 74 74 60 58 62 65 58 65 65 60 55 56 56 55 63 63 66 67 70 64 59 52 51 52 55 54 49 52 52 58
95 95 96 98 96 94 100 99 97 100 100 94 92 88 84 78 73 70 66 71 71 71 65 59 63 68 72 72 75 71 73 72 72 69 56 54 52 53 54 54 54 54 45
89 91 95 98 99 94 98 104 99 106 110 109 107 98 95 94 90 81 77 77 77 77 76 74 74 74 77 78 78 77 77 76 75 64 52 52 54 51 49 52 54 55 49
83 87 90 88 87 85 89 103 103 100 107 110 107 108 106 103 99 94 89 90 92 89 87 88 96 90 87 81 84 85 82 83 80 76 66 51 56 52 49 47 48 49 55
79 77 78 78 81 82 87 92 105 108 104 105 106 107 109 110 110 105 100 100 100 101 94 97 100 99 97 94 94 97 94 93 91 81 68 55 53 53 49 52 45 48 47
72 71 72 71 74 80 84 88 95 104 111 110 105 109 112 114 114 113 108 106 111 111 109 107 106 103 101 98 100 101 100 96 92 78 73 63 57 57 53 50 45 52 51
64 66 69 71 70 73 79 84 92 99 104 112 109 108 109 110 114 115 117 119 121 119 117 119 114 111 108 106 106 106 99 92 87 78 71 61 57 58 53 50 46 61 63
55 56 61 66 70 71 73 77 83 88 96 105 109 109 111 108 106 110 115 118 116 115 113 114 115 117 113 109 104 99 94 92 89 80 71 64 59 58 54 53 51 58 72
51 53 54 61 67 69 71 72 73 76 79 85 92 100 105 107 109 110 111 113 112 109 108 112 112 105 103 102 100 99 93 89 80 72 65 59 61 61 55 55 51 52 56
48 50 48 50 55 61 63 64 64 66 69 73 76 81 86 91 96 100 103 106 105 101 100 100 101 98 97 96 93 90 91 86 77 69 62 61 58 60 59 55 53 53 54
39 37 38 40 42 47 52 56 57 58 59 62 64 68 72 76 78 80 83 84 87 90 93 94 94 89 87 87 87 85 82 78 74 67 64 64 59 60 63 60 58 56 52
35 34 34 34 35 35 36 40 46 50 55 59 60 58 62 65 68 71 72 74 76 83 86 90 90 86 85 88 83 78 74 74 72 73 69 64 60 63 65 62 64 59 53
29 27 28 30 31 32 32 34 37 41 43 46 50 51 53 56 60 64 63 62 58 63 69 69 68 66 69 78 76 70 67 68 65 66 67 62 61 64 68 69 68 66 59
22 21 21 20 23 24 26 29 30 33 33 36 37 35 38 39 40 39 38 38 40 42 45 47 50 49 56 66 67 65 65 64 62 66 63 60 58 66 69 70 66 67 67
22 24 22 23 24 22 24 26 30 32 31 31 31 34 32 32 32 33 33 33 35 34 35 38 35 33 34 43 55 59 64 68 64 65 62 60 63 67 71 70 68 68 70

GFSMA_250_spd_132.txt.gz
Wind_Speed
57 51 48 48 44 38 41 41 42 40 42 41 43 47 47 44 43 36 31 26 24 25 30 20 13 11 8 5 10 12 12 14 29 31 34 31 30 29 28 33 32 31 30
60 57 53 49 50 43 44 43 40 37 33 37 32 35 41 43 44 40 33 27 25 25 25 27 18 14 11 11 14 13 11 10 14 32 27 28 31 36 31 30 34 34 36
62 59 55 54 52 48 48 49 48 41 38 38 32 32 39 43 45 44 40 38 33 25 23 30 25 21 15 16 17 17 12 9 10 16 30 28 32 28 33 33 31 32 34
64 59 58 58 55 54 54 49 57 48 38 34 39 44 41 43 45 50 47 41 37 28 28 23 24 24 19 23 19 18 13 11 9 11 17 27 32 34 30 34 34 34 35
72 66 62 60 58 55 56 62 62 49 44 53 47 45 47 53 53 48 53 50 43 37 40 36 33 30 25 22 17 20 21 18 15 14 16 17 30 33 36 29 33 32 34
80 77 72 69 64 61 60 61 68 62 55 54 55 52 51 51 55 63 58 55 50 48 47 44 33 33 30 17 19 26 36 30 23 22 16 13 19 31 27 30 35 32 30
88 85 81 78 75 72 68 70 74 64 62 65 61 61 54 41 40 64 57 57 56 54 50 47 44 47 40 29 32 31 40 33 29 25 17 15 6 10 14 20 26 31 34
93 90 90 90 87 84 81 77 81 79 79 76 73 67 62 56 68 63 60 54 57 58 57 62 57 55 45 38 36 29 29 35 39 32 21 19 10 8 11 10 11 16 23
106 104 100 99 98 96 93 89 84 85 84 91 86 79 77 73 74 62 60 53 61 63 61 60 59 57 50 42 40 40 37 32 44 38 31 26 22 21 22 19 24 20 22
112 112 108 106 107 107 103 97 91 88 90 90 102 92 85 81 77 76 64 57 54 61 61 62 60 57 54 48 48 45 46 46 44 44 43 48 35 32 30 33 34 26 26
116 115 111 110 106 105 104 101 97 92 92 94 98 106 95 90 84 79 77 67 59 64 66 67 65 64 57 53 52 54 54 55 45 50 46 56 53 45 33 33 32 31 24
104 104 103 103 101 103 100 100 97 97 96 99 99 103 106 98 93 87 80 78 70 68 74 71 68 64 60 64 57 55 52 48 48 50 53 57 61 51 39 41 38 37 27
84 84 86 89 94 95 100 101 99 99 100 99 105 103 108 106 101 95 91 82 79 71 77 77 70 67 67 68 67 65 57 51 51 53 56 59 61 57 49 45 47 42 37
69 71 71 74 79 84 90 92 93 97 101 102 104 109 108 109 107 100 99 95 88 80 80 83 76 69 70 67 62 58 57 57 56 55 56 64 65 61 60 54 51 47 46
57 59 60 65 70 73 75 80 84 87 93 101 107 109 114 114 113 108 106 103 100 95 86 87 84 80 71 66 65 70 64 59 61 58 63 66 68 66 66 60 55 51 56
49 49 50 57 60 64 69 73 77 78 83 90 98 108 113 120 122 116 113 112 109 102 94 92 89 84 80 75 73 70 69 66 64 64 67 68 70 70 66 64 60 64 69
45 47 48 48 53 57 62 63 65 68 72 77 84 96 106 112 119 122 121 116 113 113 105 97 93 90 87 85 80 79 76 74 76 73 73 74 73 75 73 71 76 81 78
42 44 46 48 50 52 54 60 61 58 63 70 76 83 91 103 110 117 124 122 120 120 116 105 104 98 93 91 86 86 86 84 85 85 83 85 86 86 84 85 88 86 85
43 47 49 50 52 53 53 53 53 54 56 63 69 75 81 89 98 109 117 124 123 118 115 113 113 111 105 104 101 93 92 93 96 97 97 94 96 96 96 95 93 89 87
45 49 50 51 51 50 51 53 54 49 47 52 57 66 74 77 85 93 105 113 119 121 119 114 115 117 113 108 107 106 102 100 102 101 106 105 101 100 101 96 95 96 90
46 45 44 46 49 51 48 46 47 46 44 44 52 58 63 71 76 83 91 102 112 116 118 118 115 114 116 116 114 110 109 112 108 110 113 112 108 106 106 101 98 91 87
41 40 41 42 39 38 39 39 38 37 36 38 42 49 55 64 68 73 80 85 94 102 110 114 116 116 117 118 116 115 117 111 111 114 117 117 112 105 100 97 91 86 84
35 33 34 32 28 27 28 26 23 23 25 29 34 39 44 52 58 64 68 74 82 90 100 106 113 116 114 116 115 114 113 128 122 119 122 120 115 109 100 95 93 90 85
33 33 32 24 22 22 20 19 18 17 18 20 25 29 32 40 48 54 59 63 70 78 88 93 102 107 110 110 116 116 116 114 110 116 122 123 119 108 102 96 88 83 79
30 28 28 22 22 23 21 16 16 17 12 9 16 19 21 26 36 42 47 53 56 63 71 80 88 95 98 102 108 116 120 118 117 114 117 107 93 90 88 81 78 74 70
27 26 26 25 26 25 24 21 14 9 6 10 14 13 14 16 20 26 32 38 45 49 55 61 68 75 82 85 89 92 93 93 92 91 92 89 83 81 79 74 70 68 60

GFSMA_250_spd_138.txt.gz
Wind_Speed
63 60 58 56 52 51 49 48 40 36 40 42 48 46 48 45 40 42 38 41 42 42 46 42 36 33 30 25 30 27 23 18 14 16 24 36 33 34 35 28 29 30 30
64 64 62 60 60 62 62 59 52 44 39 43 62 56 49 56 47 46 41 42 44 45 43 48 44 32 30 28 27 28 23 23 17 16 20 29 35 35 34 34 34 33 36
69 69 67 64 62 63 61 60 58 46 44 48 44 62 49 52 47 56 50 43 49 45 49 50 40 37 32 31 28 30 27 24 18 17 17 19 33 32 39 40 39 41 33
70 70 72 70 71 69 60 59 55 54 62 61 63 48 50 56 49 47 43 57 52 45 47 45 37 38 40 36 36 37 33 28 22 17 14 14 17 35 33 37 43 42 36
76 78 76 75 74 71 68 61 62 58 67 62 64 68 50 48 60 57 52 47 46 47 49 45 43 40 39 41 44 39 41 35 29 23 16 15 18 18 30 34 36 38 35
78 75 76 77 78 78 75 71 66 69 74 75 76 72 76 62 60 57 57 58 50 49 48 54 54 49 44 44 47 44 46 41 39 33 23 23 21 25 22 28 37 34 33
88 84 82 83 82 81 79 81 73 77 83 84 82 78 79 81 73 69 64 65 60 59 59 52 59 60 49 45 44 47 46 45 43 39 37 35 28 25 25 26 33 36 33
91 90 90 90 90 89 89 87 87 79 86 92 92 89 86 80 85 86 80 74 66 64 69 59 61 62 57 49 44 53 51 51 48 45 42 34 31 27 27 24 21 32 28
91 93 91 88 90 91 92 94 95 96 89 97 99 99 94 88 87 88 86 81 79 73 80 67 63 63 60 50 49 52 59 56 55 50 50 36 33 24 27 16 17 23 22
93 92 93 97 100 101 101 100 100 100 100 95 104 109 104 99 94 88 89 86 84 81 82 81 68 70 63 50 46 52 56 62 60 53 54 46 47 45 30 29 24 21 23
100 101 100 101 100 101 99 100 102 103 104 105 103 113 114 110 105 100 93 91 91 88 88 89 74 71 63 60 51 49 57 63 59 61 57 49 49 47 44 43 40 37 35
104 106 106 104 104 105 107 106 103 103 103 103 105 106 115 121 119 111 105 101 95 94 96 96 87 76 73 70 62 56 58 62 68 65 66 63 52 50 51 49 50 40 50
105 103 105 105 105 105 104 100 98 95 95 97 98 103 105 113 123 123 120 111 107 100 98 101 96 90 82 75 69 69 61 62 64 67 69 65 62 58 58 58 54 52 43
94 94 92 90 91 88 85 86 85 85 84 85 89 92 97 101 105 116 128 125 119 112 107 104 107 100 91 86 83 78 64 66 73 67 68 66 65 65 62 63 62 60 57
82 78 77 77 76 77 77 77 77 78 78 77 77 80 85 93 97 102 106 115 127 121 115 112 116 108 106 94 95 79 69 69 75 81 74 74 72 71 70 65 66 67 68
73 70 69 67 66 65 65 66 67 66 67 67 68 69 74 78 82 89 98 102 106 121 125 121 121 116 116 107 102 90 74 65 79 84 77 77 75 75 75 72 72 71 69
68 63 59 55 57 57 57 57 58 60 61 62 63 62 66 70 73 76 81 89 97 102 115 128 123 125 121 115 110 102 98 90 76 79 83 82 80 78 76 76 74 75 75
61 54 52 48 49 50 51 54 55 58 59 60 61 61 62 60 62 65 70 77 82 91 100 117 129 134 130 122 116 112 105 103 89 84 83 84 85 86 84 82 81 80 80
57 52 46 43 42 42 43 49 55 56 58 61 61 61 57 56 56 57 60 66 70 79 90 101 125 133 136 129 120 118 113 108 101 100 84 81 85 90 89 90 87 87 87
52 51 42 37 37 40 40 42 44 47 47 50 53 49 49 48 49 53 55 57 63 70 78 92 109 131 136 139 131 122 120 114 111 107 97 82 88 94 84 86 92 90 86
47 46 42 38 37 39 43 44 40 39 42 43 43 44 45 45 47 48 50 52 58 62 68 80 98 109 124 140 143 138 128 123 120 115 106 93 83 95 95 88 84 85 85
46 42 39 35 34 35 38 41 38 39 42 45 44 41 36 36 40 44 49 50 51 54 62 70 80 97 109 119 125 128 132 131 125 120 116 117 115 100 90 100 99 89 84
43 41 37 32 30 30 32 34 37 36 35 36 30 28 28 29 32 35 39 42 46 51 57 64 69 79 92 107 118 119 120 128 132 130 125 123 123 115 98 97 97 98 94
44 41 38 34 31 29 28 31 32 32 31 31 26 23 23 21 25 33 37 38 40 46 52 57 62 69 77 87 102 113 117 122 127 130 132 130 129 126 121 116 107 102 101
47 46 41 37 32 31 29 32 31 28 30 28 25 24 23 27 29 30 34 34 38 39 44 50 55 58 66 75 86 95 106 116 121 123 126 129 129 129 128 126 123 116 114
45 45 44 39 35 31 31 32 32 28 30 29 27 27 25 24 26 26 30 33 33 34 37 41 45 51 57 63 72 80 88 97 110 118 120 125 125 126 127 129 127 121 120

GFSMA_250_spd_141.txt.gz
Wind_Speed
65 65 66 67 69 64 60 52 44 37 42 33 24 57 57 49 37 40 46 42 36 36 38 41 39 41 42 35 34 32 29 31 29 26 24 22 32 43 43 40 36 38 38
70 71 70 68 66 67 64 60 54 52 46 43 38 52 41 55 51 36 46 46 44 47 39 39 39 43 46 45 36 35 32 29 29 25 25 25 25 33 44 40 39 38 37
75 75 73 71 69 68 67 63 64 63 63 55 56 60 53 38 51 47 42 45 40 41 46 46 46 45 47 44 43 37 30 29 27 28 24 23 24 27 38 42 40 41 38
79 76 75 75 73 71 69 69 68 67 70 67 70 62 60 56 50 41 48 45 43 34 35 40 45 52 50 42 43 38 37 34 35 30 28 26 22 18 26 41 43 42 43
76 77 76 75 77 75 74 74 72 72 71 74 74 73 71 73 64 58 48 47 50 49 33 37 46 47 51 43 39 41 34 37 38 35 32 32 27 18 19 23 42 44 41
75 74 74 76 77 76 79 78 77 76 76 77 81 81 77 75 72 70 68 64 61 53 60 40 50 49 47 47 44 44 47 41 40 42 40 41 36 29 21 23 27 31 43
77 77 79 81 82 85 83 78 79 85 82 84 81 85 85 81 80 76 78 75 65 65 62 56 52 52 51 46 49 52 48 48 40 44 47 45 42 37 28 28 27 31 33
79 77 78 79 83 85 86 88 87 84 84 85 84 89 90 89 87 83 79 83 80 72 69 72 63 63 59 48 48 53 54 52 46 46 46 49 46 42 35 31 33 30 37
85 84 82 81 81 82 83 88 89 93 96 99 98 93 91 92 93 95 88 86 86 80 79 81 67 70 67 63 58 54 53 52 53 47 44 52 52 48 43 35 32 27 32
89 91 90 91 93 92 91 89 89 92 96 101 109 110 109 106 104 101 101 97 92 91 88 85 85 79 74 74 66 65 56 53 53 50 46 55 58 51 45 42 30 27 26
92 92 92 93 94 97 101 102 99 97 97 99 103 109 104 107 110 108 108 108 106 98 94 94 93 96 85 79 77 69 67 59 53 55 53 52 61 63 58 53 41 37 29
95 96 96 96 98 98 98 97 99 101 101 100 103 107 110 107 103 105 103 108 109 110 103 101 98 97 91 88 85 81 73 72 63 56 44 45 58 64 61 57 56 44 42
87 92 97 101 103 104 106 106 106 105 102 101 102 104 107 108 103 106 115 115 113 106 109 111 107 106 104 98 91 90 82 75 72 62 56 48 57 63 65 62 60 50 45
77 82 84 88 91 93 95 94 93 91 92 91 93 96 99 103 108 107 99 117 119 122 121 111 117 109 113 110 101 94 94 86 81 73 64 60 59 59 69 66 65 60 56
75 77 75 74 74 75 76 76 76 79 79 81 82 84 88 93 95 100 102 97 117 121 123 130 126 120 117 116 111 103 102 92 86 82 70 61 56 60 73 78 76 71 67
65 63 63 64 64 63 64 66 68 70 71 72 74 77 80 83 85 88 91 97 99 113 124 115 129 129 127 125 121 116 107 108 95 92 82 75 70 81 79 73 75 73 72
60 59 59 58 59 61 60 61 62 63 64 65 66 66 68 71 74 75 80 86 91 96 99 109 115 124 130 128 127 124 119 111 106 100 95 90 85 82 86 80 78 78 77
60 58 58 59 59 57 55 54 55 56 56 57 57 57 58 60 61 63 68 74 79 84 88 99 105 111 118 128 128 129 126 118 117 107 103 91 100 88 84 86 87 86 84
58 58 58 57 54 50 47 46 48 50 49 47 46 45 50 53 52 52 53 54 59 65 76 85 92 104 110 117 125 130 129 125 122 116 109 102 107 91 89 88 91 92 91
58 57 53 50 48 47 42 42 43 43 43 42 43 44 49 53 51 50 49 52 55 57 61 69 79 91 101 111 116 122 131 129 123 123 118 111 109 105 107 90 92 96 95
55 52 48 45 44 44 43 39 39 40 43 44 45 46 46 47 46 46 47 48 49 50 54 62 70 77 85 94 106 115 122 132 130 123 126 118 114 111 119 98 90 93 95
50 47 45 44 43 43 41 39 36 36 39 43 44 44 45 44 42 42 42 45 50 51 49 51 55 66 72 80 91 102 113 121 131 130 128 127 119 123 122 108 107 99 97
47 45 44 44 44 41 40 38 35 33 34 36 39 37 36 33 31 34 35 38 42 45 48 48 53 61 67 71 80 90 100 112 118 128 133 134 130 130 129 117 114 112 115
49 49 46 45 43 41 40 38 35 32 32 34 37 32 32 29 28 28 28 31 34 36 41 48 51 53 59 66 73 78 85 99 111 119 129 138 133 136 135 131 121 119 118
51 51 48 46 44 42 40 37 36 35 33 34 35 34 32 29 28 25 27 28 29 30 34 39 45 49 54 59 66 73 81 90 102 110 120 132 137 135 141 138 133 129 124
46 46 45 44 43 44 44 40 37 38 35 34 31 36 34 32 32 32 32 31 30 29 33 37 40 45 51 55 59 65 71 76 87 101 110 122 131 135 141 143 139 135 132

GFSMA_250_spd_144.txt.gz
Wind_Speed
69 69 68 69 69 64 59 58 58 61 60 52 42 43 41 37 47 49 60 43 42 32 36 39 34 42 38 33 32 35 39 36 32 31 34 27 24 18 22 31 38 40 40
73 74 73 72 72 69 65 61 64 64 65 63 57 55 53 50 41 44 48 45 45 37 36 36 39 41 37 35 33 35 35 41 37 35 35 27 27 24 23 26 32 40 43
68 71 75 74 75 73 71 69 68 67 68 67 64 61 58 59 55 47 44 37 46 50 40 36 40 41 36 36 39 38 37 39 41 37 33 27 28 20 20 23 24 34 41
62 67 69 72 73 73 74 75 74 72 72 72 71 66 69 67 71 65 58 49 36 45 37 38 46 41 29 28 36 37 43 43 37 41 34 35 29 27 23 23 21 22 32
62 65 67 69 71 71 74 77 77 77 78 78 76 75 75 77 78 77 74 65 47 46 43 41 50 51 43 35 40 41 38 37 38 39 40 37 34 29 26 29 29 22 21
69 67 67 70 72 74 74 75 76 79 79 81 81 82 82 84 82 80 80 75 69 61 60 51 52 42 45 39 41 47 46 42 38 37 44 43 38 34 31 32 32 27 21
75 79 77 76 75 78 78 79 78 80 79 82 85 88 88 89 89 85 84 86 77 75 72 65 55 50 54 48 44 50 52 50 45 44 42 47 44 41 41 38 36 28 27
81 81 81 80 78 75 78 81 83 84 84 86 86 87 92 92 92 91 88 86 87 86 81 76 77 76 69 59 58 55 59 58 54 45 46 45 44 45 43 41 41 38 32
85 85 86 86 84 82 81 82 86 88 90 88 90 94 95 94 97 95 95 94 91 91 89 85 78 82 78 76 67 63 59 63 62 56 50 49 48 48 47 43 45 43 35
91 92 91 92 91 90 88 88 88 90 91 94 92 92 98 99 102 103 99 96 95 93 92 90 93 90 91 82 83 79 72 65 69 64 53 52 52 47 48 45 49 48 42
94 92 91 92 92 91 91 90 92 91 92 95 96 96 96 99 105 104 108 108 101 99 98 98 97 97 95 92 90 90 83 74 67 70 62 57 52 51 50 49 48 53 48
89 89 90 91 92 92 93 95 98 100 101 99 98 100 100 99 101 103 106 113 114 113 111 107 105 104 99 98 97 94 92 85 79 75 77 62 59 57 56 58 54 53 54
82 84 87 88 87 87 88 91 95 99 100 99 99 98 100 101 102 101 101 105 109 113 116 118 117 114 112 107 105 101 97 96 88 77 84 79 67 66 64 65 58 56 57
78 80 80 75 72 73 77 81 84 87 89 92 94 96 100 100 101 102 101 102 107 106 110 115 119 120 119 119 111 110 106 101 96 91 83 87 81 71 64 69 64 56 60
71 71 68 65 66 68 69 71 74 77 78 80 82 85 88 92 97 100 103 103 104 108 112 114 113 116 116 114 112 114 113 109 105 101 90 90 89 82 74 70 70 61 60
69 70 66 64 63 62 63 63 63 63 65 67 70 73 74 77 81 85 88 94 98 101 106 109 114 112 112 121 113 116 115 117 114 109 104 95 96 90 85 75 69 68 58
65 66 63 60 58 57 57 57 58 60 61 62 64 66 67 69 71 74 79 83 86 90 94 102 106 113 123 121 122 119 120 125 119 117 109 109 100 98 95 92 81 67 69
65 62 58 56 55 53 54 54 56 57 57 57 58 60 62 64 67 69 71 73 77 80 82 88 96 102 104 107 118 121 113 121 129 121 117 106 106 100 104 100 95 85 81
62 57 53 52 52 52 54 54 54 53 52 53 53 53 55 55 56 57 58 61 63 67 71 76 83 91 95 96 98 115 123 116 128 131 126 120 112 114 108 107 106 100 92
56 53 51 51 51 52 52 53 52 50 47 46 46 46 47 48 46 48 51 55 60 62 62 64 63 70 78 85 90 93 101 111 118 121 133 133 128 124 121 112 107 106 99
50 50 50 49 50 51 50 50 48 46 42 40 40 41 42 44 45 46 49 51 52 56 60 62 65 66 69 76 82 88 92 95 108 114 126 132 134 127 124 117 112 108 110
47 49 49 49 48 48 48 47 45 43 40 38 37 38 40 43 45 47 48 45 46 48 51 54 59 64 65 68 71 77 85 91 93 108 113 118 128 135 131 125 123 121 120
47 46 47 47 47 47 47 45 44 41 39 37 36 37 37 37 42 43 37 38 43 44 47 48 51 55 58 64 67 69 74 80 86 90 104 106 117 127 135 133 127 126 128
46 45 46 48 47 46 46 45 44 42 39 38 37 36 37 36 35 34 32 31 33 35 39 43 46 50 54 57 62 67 71 75 78 85 91 101 109 115 126 130 132 131 133
44 43 47 47 46 45 44 45 44 41 39 39 38 36 38 36 34 34 32 31 31 31 32 34 36 40 48 54 58 61 65 71 77 82 87 91 98 108 116 126 132 135 135
40 39 40 41 41 40 39 40 43 41 41 40 38 38 38 38 37 32 34 33 35 34 33 33 34 38 41 45 49 56 61 65 68 75 82 87 92 98 107 117 125 133 134

GFSMA_250_spd_150.txt.gz
Wind_Speed
59 58 58 60 61 62 61 59 57 55 52 54 61 64 55 50 43 45 48 43 50 52 49 46 45 38 42 38 35 35 26 23 27 22 24 28 26 27 28 27 20 21 23
66 66 65 63 63 64 63 62 63 61 60 61 59 67 69 64 61 59 55 51 51 45 53 50 52 43 41 41 37 35 37 29 29 33 31 28 27 28 27 25 23 20 22
69 69 68 68 70 71 69 66 65 63 61 62 64 63 68 73 73 73 66 65 62 65 52 49 44 42 38 39 35 35 33 32 30 38 34 34 34 29 29 25 26 21 21
73 71 71 72 69 70 73 72 70 66 64 61 63 66 67 71 81 78 75 73 78 76 69 58 55 49 39 43 38 42 43 37 33 31 34 37 39 36 28 29 28 27 24
69 65 65 66 72 73 75 77 77 75 72 69 65 66 68 70 72 83 88 81 81 82 82 82 74 59 52 47 45 42 47 48 40 30 31 33 37 40 32 30 31 33 27
66 70 71 73 82 85 83 83 82 80 77 76 74 70 70 71 75 75 80 89 88 87 85 83 74 68 63 60 51 49 35 45 37 40 42 36 35 38 36 33 30 34 33
77 74 83 87 89 93 102 90 86 84 84 83 79 77 74 74 73 77 80 81 86 92 89 85 80 73 74 67 58 62 44 40 40 43 52 40 41 38 36 37 36 32 34
85 91 100 106 104 105 91 90 91 93 90 89 88 84 82 80 79 79 80 85 84 87 92 89 85 80 75 74 57 59 51 57 53 50 46 56 57 56 52 40 42 43 35
105 105 106 116 104 93 92 88 91 97 97 97 96 94 91 88 89 88 83 85 89 89 88 91 90 89 82 77 71 66 70 75 71 55 36 55 50 51 57 53 45 44 45
111 109 115 99 91 83 78 82 88 95 97 100 98 98 96 94 94 93 91 85 91 94 94 93 90 93 91 84 81 80 75 79 78 73 65 69 52 58 57 57 49 48 49
112 119 98 83 79 78 77 83 87 90 93 96 97 99 99 101 100 99 98 90 91 96 99 98 97 97 99 96 90 87 85 87 85 89 75 61 65 73 71 62 57 57 51
112 93 86 79 78 77 76 80 82 84 87 88 89 93 96 99 100 103 103 102 96 94 98 105 105 102 101 103 100 96 95 94 92 88 95 91 84 76 74 67 65 64 59
86 81 76 74 76 76 73 75 77 76 79 79 80 83 87 89 92 92 98 103 102 99 97 101 106 109 108 106 106 106 102 101 99 101 98 99 94 86 79 78 74 71 68
81 76 73 71 70 70 70 73 73 77 79 78 80 80 80 82 82 85 90 99 102 104 103 101 104 108 111 113 112 112 111 110 108 106 106 105 97 96 97 79 79 74 76
77 72 73 70 67 66 66 69 71 77 77 77 76 78 78 73 73 78 82 87 91 95 98 102 101 108 110 113 117 116 114 116 115 113 112 112 109 108 100 97 90 87 81
73 70 71 69 67 67 67 69 73 73 77 78 73 73 70 67 69 74 76 77 80 84 90 96 99 103 109 112 117 120 119 118 119 120 119 117 112 108 106 105 101 97 93
69 67 65 64 64 64 65 66 71 74 76 73 69 61 58 61 66 69 69 70 72 72 76 81 87 93 99 105 110 117 121 122 123 123 121 119 116 114 113 114 110 107 104
72 69 68 66 65 64 65 66 70 69 69 66 63 56 54 57 60 64 65 66 67 68 70 74 76 79 83 90 100 109 113 119 124 123 124 124 122 121 121 119 118 114 111
68 65 65 64 62 60 62 64 65 63 60 58 56 53 52 54 56 59 61 63 63 64 66 67 68 69 71 77 84 91 100 109 114 120 125 123 123 126 125 124 122 119 118
65 62 60 59 58 56 56 56 55 55 53 52 52 52 51 53 54 55 57 60 62 61 61 63 64 65 66 68 72 76 83 94 101 108 114 120 123 123 126 126 127 124 122
61 59 58 55 51 51 51 51 50 50 49 49 49 48 49 51 53 54 56 57 58 57 56 57 57 60 62 61 65 71 74 77 85 92 101 108 112 116 122 126 127 127 128
55 53 53 52 50 48 47 46 46 48 49 47 46 46 48 51 52 53 53 53 53 53 52 51 50 52 52 55 59 62 65 69 73 77 82 89 97 108 113 118 120 125 130
51 50 49 47 47 46 44 44 45 48 48 46 46 45 47 49 50 51 51 50 49 46 45 45 45 41 44 49 50 52 53 56 61 66 71 74 80 88 94 100 107 117 121
46 46 46 45 43 43 44 44 43 42 42 41 41 44 46 47 48 49 48 47 46 42 40 40 40 39 44 46 47 48 51 51 55 60 62 64 69 75 82 88 93 98 103
43 43 42 42 42 41 41 40 39 39 39 37 35 36 40 43 45 46 46 45 44 40 39 37 37 35 37 39 41 43 47 50 51 53 57 61 64 66 70 76 82 88 95
40 39 39 40 40 38 38 38 36 34 33 32 32 35 36 38 41 44 45 45 45 41 37 35 35 35 39 39 39 41 41 45 48 50 52 55 59 62 65 68 74 81 85

GFSMA_250_spd_153.txt.gz
Wind_Speed
59 61 63 62 57 60 58 58 59 59 59 60 60 59 56 55 56 56 50 52 55 51 49 46 49 41 39 43 38 37 34 34 30 31 30 21 21 21 24 24 24 27 22
68 70 70 67 67 64 64 63 63 63 62 63 62 62 61 60 61 59 64 59 57 59 55 48 45 53 46 44 45 42 36 33 33 36 37 30 25 27 24 24 27 26 24
73 73 73 72 72 72 70 66 66 67 65 65 64 64 65 65 64 66 65 72 68 65 63 59 53 53 51 51 50 46 44 31 33 36 39 33 36 32 33 33 30 25 24
75 75 73 73 73 72 69 68 66 65 62 66 66 64 63 67 68 68 71 69 75 74 69 66 62 59 52 50 50 45 41 37 31 35 37 38 37 36 37 39 35 32 25
77 76 75 72 68 66 60 65 63 65 66 70 69 72 73 71 72 72 75 74 73 78 83 78 74 66 63 55 53 50 45 44 41 39 40 48 41 39 38 39 41 39 32
80 77 71 60 59 63 65 72 78 77 76 84 87 81 84 83 75 76 77 77 75 73 83 89 85 80 74 71 61 54 56 51 41 47 48 49 48 40 40 36 38 36 39
79 72 71 73 71 76 75 81 89 96 98 96 93 95 94 93 85 81 81 80 80 78 76 85 93 90 84 82 79 64 59 55 51 48 45 40 47 42 39 38 38 40 37
74 72 76 77 80 83 90 100 100 100 104 100 101 98 103 97 94 91 86 84 83 85 82 80 84 92 94 90 87 85 78 63 64 52 41 43 45 46 49 46 45 37 33
75 76 80 86 91 97 106 109 108 105 105 106 104 102 97 95 96 94 92 88 84 86 87 87 85 86 89 92 91 90 87 75 72 78 62 52 47 47 57 50 53 52 48
87 88 89 99 104 109 110 109 104 102 101 92 86 87 87 91 92 94 94 95 93 89 89 90 91 88 87 88 90 93 91 83 77 82 78 66 63 56 61 56 59 61 55
94 96 104 110 110 112 113 97 91 86 83 80 77 79 84 88 94 92 97 99 98 95 92 92 93 94 91 88 88 92 96 90 85 83 82 75 62 72 71 65 69 63 60
109 112 115 118 119 115 91 81 81 80 79 75 73 77 80 84 94 98 101 103 102 99 97 97 95 97 97 95 93 91 91 95 94 85 88 93 85 80 73 72 72 70 66
116 118 124 123 124 98 85 80 78 75 76 76 75 77 78 79 83 91 97 102 107 103 95 96 97 97 97 96 98 98 95 98 98 96 98 100 100 97 84 76 71 74 67
124 127 128 123 99 90 83 77 74 76 76 74 72 75 77 76 76 77 80 84 93 101 98 95 98 98 98 97 98 103 102 101 103 103 103 106 101 101 95 95 86 83 80
125 122 116 102 94 86 82 77 74 74 75 74 73 74 74 76 75 75 76 76 76 81 90 98 100 99 101 101 100 104 107 107 107 108 109 109 111 106 105 103 98 97 92
115 106 99 91 85 80 78 75 72 71 71 71 73 74 73 74 73 71 67 64 66 74 78 84 92 95 98 101 102 101 110 112 113 112 111 113 113 114 113 106 105 98 96
102 91 84 82 76 74 72 66 64 63 63 64 70 73 73 73 67 63 58 58 62 68 75 79 82 85 89 92 98 101 106 113 116 116 115 115 118 120 118 115 115 111 113
82 80 74 71 69 68 67 65 63 60 60 61 63 63 64 63 62 57 55 54 59 65 67 69 72 76 78 82 88 94 101 106 112 116 120 120 120 123 124 125 121 118 118
74 73 71 70 67 64 61 59 57 56 55 55 59 60 60 59 56 55 53 52 55 58 59 62 64 65 68 72 77 82 89 98 107 114 117 122 125 126 127 127 129 126 125
70 69 66 64 62 59 56 53 52 51 51 53 55 56 54 52 49 51 50 50 52 52 52 53 57 58 60 62 64 69 76 82 91 101 110 117 124 126 129 129 130 131 131
67 65 61 58 56 52 50 48 48 48 48 48 49 50 49 49 49 48 47 48 49 49 49 50 51 53 56 57 60 64 67 72 76 85 94 104 115 123 127 130 132 132 133
61 58 55 52 49 48 46 45 44 44 45 46 46 45 45 45 44 44 43 44 46 47 47 49 48 50 54 56 57 59 63 65 68 71 78 85 95 105 117 125 129 133 135
55 52 49 47 45 42 42 42 42 41 41 42 42 42 41 41 40 41 42 43 45 46 46 48 49 50 51 53 55 55 59 63 65 67 69 74 78 86 96 107 119 125 130
49 47 43 42 41 42 42 41 41 40 40 40 39 39 38 37 38 38 40 42 44 45 46 48 49 50 50 49 47 50 54 56 58 59 62 67 71 75 81 89 99 111 123
44 41 40 40 40 39 39 40 39 38 37 36 35 34 34 33 35 36 38 42 44 46 46 48 48 48 48 47 44 46 48 49 51 52 55 58 64 71 75 80 86 94 104
38 37 37 38 37 36 37 38 37 33 33 34 31 30 30 31 33 35 37 40 43 45 47 48 48 47 48 45 43 44 43 46 47 51 51 56 60 65 69 75 80 85 91